Location: Boiro
(42.6475°N, 8.8834°W)
Time: 21:35:16
(UTC+01:00)

Vanguard 1 - Pass Details

Date: 03 December 2021
Orbit: 652 x 3830 km, 34.2° (Epoch: 19 January)

Event Time Altitude Azimuth Distance (km) Brightness Sun altitude
Rises 23:03:33 0° 201° (SSW) 6,588 14.3 -54.1°
Reaches altitude 10° 23:08:17 10° 192° (SSW) 5,967 13.9 -54.9°
Enters shadow 23:09:10 12° 190° (S) 5,865 13.8 -55.1°
Maximum altitude 23:24:48 33° 137° (SE) 5,152 - -57.6°
Drops below altitude 10° 23:43:20 10° 85° (E) 6,761 - -60.5°
Sets 23:49:03 0° 77° (ENE) 7,550 - -61.4°
